Regional Weather Roundup
Issued by NWS Northern Indiana

Home | Current Version | Previous Version | Text Only | Print | Product List | Glossary Off
Versions: 1 2 3 4 5 6 7 8 9 10 11 12 13 14 15 16 17 18 19 20 21 22 23 24 25 26 27 28 29 30 31 32 33 34 35 36 37 38 39 40 41 42 43 44 45 46 47 48 49 50

000
ASUS43 KIWX 182200
RWRIWX

KIWX WEATHER ROUNDUP
NATIONAL WEATHER SERVICE NORTHERN INDIANA
500 PM EST THU DEC 18 2014

NOTE: "FAIR" INDICATES FEW OR NO CLOUDS BELOW 12,000 FEET WITH NO
SIGNIFICANT WEATHER AND/OR OBSTRUCTIONS TO VISIBILITY.

* THESE STATIONS ARE NOT UNDER NWS QUALITY CONTROL. THEY ALSO MAY NOT
  REPORT WEATHER SUCH AS PRECIPITATION OR FOG.

INZ001>027-182300-
NORTHERN INDIANA

CITY           SKY/WX    TMP DP  RH WIND       PRES   REMARKS
GARY*          CLOUDY    28  16  59 W6        30.25  WCI  22
SOUTH BEND     CLOUDY    28  21  75 W8        30.22S WCI  20
GOSHEN         CLOUDY    27  22  81 W8        30.21S WCI  19
ANGOLA*        CLOUDY    27  25  93 W6        30.18S WCI  20
FORT WAYNE     CLOUDY    27  21  78 W8        30.22S WCI  19
PERU/GRISSOM   CLOUDY    27  25  93 NW5       30.22R WCI  21

$$
INZ028>050-182300-
CENTRAL INDIANA

CITY           SKY/WX    TMP DP  RH WIND       PRES   REMARKS
LAFAYETTE      CLOUDY    26  21  81 NW5       30.24S WCI  20
KOKOMO*        MOCLDY    27  19  74 NW6       30.22R WCI  20
MUNCIE*        CLOUDY    27  20  75 W3        30.21R
INDIANAPOLIS   CLOUDY    27  21  78 CALM      30.22R

$$
MIZ043>046-050>051-056>058-064>065-071>073-077>080-182300-
SOUTHWEST LOWER MICHIGAN

CITY           SKY/WX    TMP DP  RH WIND       PRES   REMARKS
BATTLE CREEK   CLOUDY    30  25  81 W7        30.18S WCI  23
BENTON HARBOR  CLOUDY    28  22  78 SW15      30.22S WCI  16
COLDWATER*     CLOUDY    29  26  89 W7        30.18S WCI  21
HILLSDALE*     CLOUDY    29  27  92 W5        30.16S WCI  24
HOLLAND        CLOUDY    33  30  88 SW3       30.18S
GRAND RAPIDS   FRZ DRZL  31  28  89 SW7       30.17S FOG     WCI  24
KALAMAZOO      CLOUDY    29  23  78 W9        30.19R WCI  20
STURGIS*       CLOUDY    27  25  93 W5        30.19S WCI  21
THREE RIVERS*  CLOUDY    29  24  80 W6        30.20S WCI  23

$$
OHZ001>008-015>018-024>025-182300-
NORTHWEST OHIO

CITY           SKY/WX    TMP DP  RH WIND       PRES   REMARKS
DEFIANCE       CLOUDY    30  24  78 VRB3      30.21R
FINDLAY        CLOUDY    30  23  75 W9        30.19S WCI  22
TOLEDO EXPRESS CLOUDY    30  25  81 W9        30.19R WCI  22
TOLEDO METCALF CLOUDY    32  24  72 W10       30.20R WCI  24
LIMA           CLOUDY    31  23  72 W7        30.19S WCI  24

$$
AND FOR LAKE MICHIGAN COASTAL AND OPEN LAKE BUOY OBSERVATIONS

STATION/POSITION TEMP    WIND        PRES    VSBY  WAVE
                 AIR SEA DIR/SP/G                  HT/PER
                 (F)     (DEG/KT/KT) (MB)    (MI)  (FT/S)
CALUMET HARBOR    27     190/  4/  5 1022.7R
SAINT JOSEPH      30     230/ 12/ 15 1024.0R

$$
&&


USA.gov is the U.S. government's official web portal to all federal, state and local government web resources and services.